LIGHTCUBE

Last updated on Sat Oct 14 2023 00:02:06 GMT+0000 (Coordinated Universal Time)

1 56314U 98067VF 23286.41787111 .09009232 12372-4 95711-3 0 9990 2 56314 51.6098 80.7140 0009186 296.8532 63.1554 16.36595299 27029

Satellite not in orbit